Change the Weather History Date:

Friday, September 20, 2013

  Actual Average (KMHR) Record (KMHR)
Temperature  
Mean Temperature 70 °F -  
Max Temperature 82 °F 85 °F 100 °F (2000)
Min Temperature 59 °F 55 °F 44 °F (2004)
Cooling Degree Days 6    
Growing Degree Days 20 (Base 50)    
Moisture  
Dew Point 49 °F    
Average Humidity 50    
Maximum Humidity 77    
Minimum Humidity 28    
Precipitation  
Precipitation 0.00 in - - ()
Sea Level Pressure  
Sea Level Pressure 29.78 in    
Wind  
Wind Speed 10 mph (South)    
Max Wind Speed 21 mph    
Max Gust Speed 28 mph    
Visibility 10 miles    
Events      
Averages and records for this station are not official NWS values.
T = Trace of Precipitation, MM = Missing Value Source: NWS Daily Summary

Daily Weather History Graph

Daily Weather History Graph

Search for Another Location

Airport or City:

Trip Planner

Search our weather history database for the weather conditions in past years. The results will help you decide how hot, cold, wet, or windy it might be!

Date:

Astronomy

Sep. 20, 2013 Rise Set
Actual Time 6:51 AM PDT 7:05 PM PDT
Civil Twilight 6:25 AM PDT 7:31 PM PDT
Nautical Twilight 5:54 AM PDT 8:02 PM PDT
Astronomical Twilight 5:22 AM PDT 8:34 PM PDT
Moon 7:43 PM PDT (9/20) 8:10 AM PDT (9/20)
Length of Visible Light 13h 06m
Length of Day
12h 13m
Full, 98% of the Moon is Illuminated
Sep 20
Full
Sep 26
Last Quarter
Oct 4
New
Oct 11
First Quarter
Oct 18
Full

Hourly Weather History & Observations

Time (PDT) Temp. Heat Index Dew Point Humidity Pressure Visibility Wind Dir Wind Speed Gust Speed Precip Events Conditions
12:10 AM 66.2 °F - 41.0 °F 40% 29.75 in 10.0 mi SE 6.9 mph - N/A   Clear
12:30 AM 66.2 °F - 41.0 °F 40% 29.75 in 10.0 mi SE 8.1 mph - N/A   Clear
12:50 AM 66.2 °F - 41.0 °F 40% 29.76 in 10.0 mi SE 5.8 mph - N/A   Clear
1:10 AM 64.4 °F - 41.0 °F 42% 29.75 in 10.0 mi SE 8.1 mph - N/A   Clear
1:30 AM 64.4 °F - 41.0 °F 42% 29.76 in 10.0 mi SE 8.1 mph - N/A   Clear
1:50 AM 64.4 °F - 41.0 °F 42% 29.76 in 10.0 mi SE 8.1 mph - N/A   Clear
2:10 AM 62.6 °F - 41.0 °F 45% 29.75 in 10.0 mi SE 6.9 mph - N/A   Clear
2:30 AM 62.6 °F - 41.0 °F 45% 29.75 in 10.0 mi SE 6.9 mph - N/A   Unknown
2:50 AM 60.8 °F - 39.2 °F 45% 29.74 in 10.0 mi SE 6.9 mph - N/A   Clear
3:10 AM 60.8 °F - 39.2 °F 45% 29.74 in 10.0 mi SSE 6.9 mph - N/A   Clear
3:30 AM 59.0 °F - 41.0 °F 51% 29.74 in 10.0 mi SSE 6.9 mph - N/A   Clear
3:50 AM 59.0 °F - 41.0 °F 51% 29.74 in 10.0 mi SE 8.1 mph - N/A   Clear
4:10 AM 60.8 °F - 42.8 °F 52% 29.74 in 10.0 mi South 9.2 mph - N/A   Clear
4:30 AM 62.6 °F - 42.8 °F 48% 29.74 in 10.0 mi SSE 9.2 mph - N/A   Clear
4:50 AM 62.6 °F - 44.6 °F 52% 29.74 in 10.0 mi South 10.4 mph - N/A   Clear
5:10 AM 62.6 °F - 44.6 °F 52% 29.74 in 10.0 mi South 10.4 mph - N/A   Clear
5:30 AM 62.6 °F - 42.8 °F 48% 29.74 in 10.0 mi SSE 9.2 mph - N/A   Clear
5:50 AM 60.8 °F - 42.8 °F 52% 29.74 in 10.0 mi SSE 9.2 mph - N/A   Clear
6:10 AM 60.8 °F - 42.8 °F 52% 29.75 in 10.0 mi SSE 8.1 mph - N/A   Clear
6:30 AM 59.0 °F - 44.6 °F 59% 29.75 in 10.0 mi SSE 9.2 mph - N/A   Clear
6:50 AM 59.0 °F - 46.4 °F 63% 29.75 in 10.0 mi SSE 8.1 mph - N/A   Clear
7:10 AM 59.0 °F - 46.4 °F 63% 29.76 in 10.0 mi SSE 8.1 mph - N/A   Clear
7:30 AM 60.8 °F - 46.4 °F 59% 29.77 in 10.0 mi SSE 11.5 mph - N/A   Clear
7:50 AM 62.6 °F - 46.4 °F 55% 29.77 in 10.0 mi SSE 12.7 mph - N/A   Clear
8:10 AM 62.6 °F - 46.4 °F 55% 29.77 in 10.0 mi SSE 11.5 mph - N/A   Clear
8:30 AM 62.6 °F - 46.4 °F 55% 29.77 in 10.0 mi SSE 11.5 mph - N/A   Clear
8:50 AM 64.4 °F - 46.4 °F 52% 29.78 in 10.0 mi SSE 13.8 mph 17.3 mph N/A   Clear
9:10 AM 64.4 °F - 48.2 °F 56% 29.78 in 9.0 mi South 13.8 mph - N/A   Clear
9:30 AM 66.2 °F - 48.2 °F 52% 29.79 in 10.0 mi SSE 12.7 mph - N/A   Clear
9:50 AM 68.0 °F - 48.2 °F 49% 29.79 in 9.0 mi SSE 11.5 mph - N/A   Clear
10:10 AM 68.0 °F - 48.2 °F 49% 29.79 in 10.0 mi SSE 11.5 mph - N/A   Clear
10:30 AM 69.8 °F - 48.2 °F 46% 29.79 in 9.0 mi SSE 12.7 mph 19.6 mph N/A   Clear
10:50 AM 71.6 °F - 48.2 °F 43% 29.80 in 10.0 mi South 11.5 mph 17.3 mph N/A   Clear
11:10 AM 73.4 °F - 48.2 °F 41% 29.80 in 10.0 mi South 16.1 mph 19.6 mph N/A   Clear
11:30 AM 75.2 °F - 48.2 °F 38% 29.81 in 10.0 mi South 13.8 mph 21.9 mph N/A   Clear
11:50 AM 75.2 °F - 48.2 °F 38% 29.80 in 10.0 mi SSE 17.3 mph 21.9 mph N/A   Clear
12:10 PM 77.0 °F - 48.2 °F 36% 29.80 in 9.0 mi South 15.0 mph 21.9 mph N/A   Clear
12:30 PM 77.0 °F - 48.2 °F 36% 29.80 in 9.0 mi South 13.8 mph - N/A   Clear
12:50 PM 77.0 °F - 50.0 °F 39% 29.80 in 10.0 mi SSE 11.5 mph 20.7 mph N/A   Clear
1:10 PM 80.6 °F - 48.2 °F 32% 29.79 in 10.0 mi South 15.0 mph - N/A   Clear
1:30 PM 80.6 °F - 48.2 °F 32% 29.79 in 10.0 mi South 12.7 mph 19.6 mph N/A   Clear
1:50 PM 80.6 °F - 46.4 °F 30% 29.78 in 10.0 mi South 16.1 mph - N/A   Clear
2:10 PM 82.4 °F - 48.2 °F 30% 29.78 in 9.0 mi South 13.8 mph 20.7 mph N/A   Clear
2:30 PM 82.4 °F - 46.4 °F 28% 29.78 in 10.0 mi SSW 13.8 mph - N/A   Clear
2:50 PM 82.4 °F - 46.4 °F 28% 29.78 in 10.0 mi SSW 13.8 mph 19.6 mph N/A   Clear
3:10 PM 82.4 °F - 48.2 °F 30% 29.77 in 10.0 mi South 16.1 mph 20.7 mph N/A   Clear
3:30 PM 82.4 °F - 50.0 °F 32% 29.77 in 10.0 mi SSW 13.8 mph 18.4 mph N/A   Clear
3:50 PM 82.4 °F - 51.8 °F 35% 29.77 in 10.0 mi South 16.1 mph 20.7 mph N/A   Clear
4:10 PM 82.4 °F - 51.8 °F 35% 29.77 in 10.0 mi SSW 16.1 mph 20.7 mph N/A   Clear
4:30 PM 82.4 °F 81.4 °F 53.6 °F 37% 29.76 in 10.0 mi SSW 18.4 mph 24.2 mph N/A   Clear
4:50 PM 80.6 °F 80.5 °F 55.4 °F 42% 29.76 in 10.0 mi SSW 15.0 mph 21.9 mph N/A   Clear
5:10 PM 78.8 °F - 55.4 °F 44% 29.76 in 10.0 mi SSW 13.8 mph - N/A   Clear
5:30 PM 78.8 °F - 55.4 °F 44% 29.77 in 10.0 mi South 18.4 mph 24.2 mph N/A   Clear
5:50 PM 77.0 °F - 57.2 °F 50% 29.77 in 10.0 mi SSW 18.4 mph 21.9 mph N/A   Clear
6:10 PM 75.2 °F - 57.2 °F 53% 29.77 in 10.0 mi SSW 15.0 mph 23.0 mph N/A   Clear
6:30 PM 75.2 °F - 57.2 °F 53% 29.78 in 10.0 mi SSW 15.0 mph 18.4 mph N/A   Clear
6:50 PM 73.4 °F - 57.2 °F 57% 29.78 in 9.0 mi SW 20.7 mph 27.6 mph N/A   Clear
7:10 PM 71.6 °F - 57.2 °F 60% 29.79 in 10.0 mi SSW 17.3 mph 23.0 mph N/A   Clear
7:30 PM 69.8 °F - 57.2 °F 64% 29.79 in 10.0 mi SSW 11.5 mph 23.0 mph N/A   Clear
7:50 PM 68.0 °F - 57.2 °F 68% 29.80 in 10.0 mi South 13.8 mph 20.7 mph N/A   Clear
8:10 PM 68.0 °F - 57.2 °F 68% 29.80 in 10.0 mi SSW 16.1 mph - N/A   Clear
8:30 PM 68.0 °F - 57.2 °F 68% 29.82 in 10.0 mi SSW 12.7 mph - N/A   Clear
8:50 PM 66.2 °F - 55.4 °F 68% 29.83 in 10.0 mi SSW 12.7 mph - N/A   Clear
9:10 PM 66.2 °F - 57.2 °F 73% 29.83 in 10.0 mi South 11.5 mph - N/A   Clear
9:30 PM 66.2 °F - 57.2 °F 73% 29.84 in 10.0 mi South 10.4 mph - N/A   Clear
9:50 PM 66.2 °F - 57.2 °F 73% 29.84 in 10.0 mi South 6.9 mph - N/A   Clear
10:10 PM 66.2 °F - 57.2 °F 73% 29.84 in 10.0 mi SSE 6.9 mph - N/A   Clear
10:30 PM 64.4 °F - 57.2 °F 77% 29.85 in 10.0 mi SSE 6.9 mph - N/A   Clear
10:50 PM 66.2 °F - 57.2 °F 73% 29.85 in 10.0 mi South 6.9 mph - N/A   Scattered Clouds
11:10 PM 64.4 °F - 57.2 °F 77% 29.85 in 10.0 mi SSW 9.2 mph - N/A   Partly Cloudy
11:30 PM 64.4 °F - 57.2 °F 77% 29.84 in 10.0 mi South 13.8 mph - N/A   Partly Cloudy
11:50 PM 64.4 °F - 57.2 °F 77% 29.85 in 10.0 mi South 12.7 mph - N/A   Partly Cloudy